Hayward, WI

2:36 PM CDT on July 26, 2017 (GMT -0500)
Sawyer County

Weather History for KHYR - October, 2012

Change the Weather History Date:

Friday, October 26, 2012

  Actual Average Record
Temperature  
Mean Temperature 34 °F -  
Max Temperature 37 °F 56 °F 64 °F (1996)
Min Temperature 30 °F 43 °F 23 °F (2006)
Degree Days  
Heating Degree Days 32    
Moisture  
Dew Point 22 °F    
Average Humidity 61    
Maximum Humidity 82    
Minimum Humidity 48    
Precipitation  
Precipitation 0.00 in - - ()
Sea Level Pressure  
Sea Level Pressure 30.26 in    
Wind  
Wind Speed 5 mph (WSW)    
Max Wind Speed 8 mph    
Max Gust Speed 22 mph    
Visibility 10 miles    
Events      
Averages and records for this station are not official NWS values.
T = Trace of Precipitation, MM = Missing Value Source: NWS Daily Summary

Daily Weather History Graph

Daily Weather History Graph

Search for Another Location

Airport or City:

Trip Planner

Search our weather history database for the weather conditions in past years. The results will help you decide how hot, cold, wet, or windy it might be!

Date:

Astronomy

Oct. 26, 2012 Rise Set
Actual Time 7:38 AM CDT 6:00 PM CDT
Civil Twilight 7:07 AM CDT 6:30 PM CDT
Nautical Twilight 6:32 AM CDT 7:05 PM CDT
Astronomical Twilight 5:58 AM CDT 7:40 PM CDT
Moon 4:22 PM CDT 4:26 AM CDT
Length of Visible Light 11h 23m
Length of Day
10h 21m
Waxing Gibbous, 91% of the Moon is Illuminated
Oct 26
Waxing Gibbous
Oct 29
Full
Nov 6
Last Quarter
Nov 13
New
Nov 20
First Quarter

Hourly Weather History & Observations

Time (CDT) Temp. Windchill Dew Point Humidity Pressure Visibility Wind Dir Wind Speed Gust Speed Precip Events Conditions
12:53 AM 34.0 °F 28.8 °F 27.0 °F 75% 30.08 in 10.0 mi Variable 5.8 mph - N/A   Overcast
1:53 AM 34.0 °F 31.0 °F 27.0 °F 75% 30.10 in 10.0 mi West 3.5 mph - N/A   Scattered Clouds
2:53 AM 33.1 °F 27.7 °F 26.1 °F 75% 30.13 in 10.0 mi Variable 5.8 mph - N/A   Mostly Cloudy
3:53 AM 32.0 °F 26.4 °F 26.1 °F 79% 30.14 in 10.0 mi Variable 5.8 mph - N/A   Scattered Clouds
4:53 AM 32.0 °F 26.4 °F 26.1 °F 79% 30.15 in 10.0 mi Variable 5.8 mph - N/A   Mostly Cloudy
6:53 AM 30.9 °F 27.5 °F 26.1 °F 82% 30.20 in 10.0 mi WSW 3.5 mph - N/A   Mostly Cloudy
8:53 AM 34.0 °F 27.2 °F 25.0 °F 70% 30.25 in 10.0 mi West 8.1 mph - N/A   Overcast
9:53 AM 35.1 °F 28.6 °F 23.0 °F 61% 30.28 in 10.0 mi West 8.1 mph - N/A   Overcast
10:53 AM 36.0 °F 32.1 °F 21.0 °F 55% 30.31 in 10.0 mi Variable 4.6 mph 17.3 mph N/A   Overcast
11:53 AM 37.0 °F 31.6 °F 21.9 °F 54% 30.31 in 10.0 mi Variable 6.9 mph - N/A   Overcast
12:53 PM 37.9 °F 32.7 °F 21.0 °F 51% 30.30 in 10.0 mi Variable 6.9 mph - N/A   Overcast
1:53 PM 37.9 °F 33.5 °F 19.9 °F 48% 30.30 in 10.0 mi Variable 5.8 mph 21.9 mph N/A   Overcast
2:53 PM 37.0 °F 33.3 °F 19.9 °F 50% 30.31 in 10.0 mi Variable 4.6 mph 16.1 mph N/A   Overcast
3:53 PM 37.0 °F 31.6 °F 19.9 °F 50% 30.31 in 10.0 mi Variable 6.9 mph - N/A   Overcast
4:53 PM 37.0 °F 33.3 °F 19.9 °F 50% 30.31 in 10.0 mi Variable 4.6 mph - N/A   Overcast
5:53 PM 36.0 °F 31.1 °F 19.0 °F 50% 30.31 in 10.0 mi WSW 5.8 mph - N/A   Overcast
6:53 PM 36.0 °F 31.1 °F 19.9 °F 52% 30.32 in 10.0 mi Variable 5.8 mph - N/A   Overcast
7:53 PM 35.1 °F 32.2 °F 21.0 °F 57% 30.33 in 10.0 mi SW 3.5 mph - N/A   Overcast
8:53 PM 34.0 °F 31.0 °F 21.0 °F 59% 30.33 in 10.0 mi WSW 3.5 mph - N/A   Overcast
9:53 PM 34.0 °F - 21.0 °F 59% 30.33 in 10.0 mi Calm Calm - N/A   Overcast
10:53 PM 34.0 °F - 21.0 °F 59% 30.34 in 10.0 mi Calm Calm - N/A   Overcast
11:53 PM 33.1 °F - 21.0 °F 61% 30.33 in 10.0 mi Calm Calm - N/A   Overcast